Flag for Gambia Weather past 2 weeks in Farafenni, Gambia

Now
79 °F

Clear.


Feels Like: 82 °F
Forecast: 75 / 92 °F
Wind: 5 mph from West

Location: Kaolack Airport

Current Time: Oct 2, 2014 at 7:28:06 AM

Latest Report: Oct 2, 2014 at 6:00 AM


Visibility: 10 mi

Pressure: 29.89 "Hg

Humidity: 89%

Dew point: 75 °F

Location of FarafenniLocation

Historic Weather in Farafenni — Graph

°F

Farafenni temperature yesterday

Maximum temperature yesterday: 91 °F (at 3:00 PM)
Minimum temperature yesterday: 81 °F (at 5:00 AM)
Average temperature yesterday: 84 °F

Past Weeks' High & Low Weather Summary

 TemperatureHumidityPressure
High99 °F (Sep 23, 4:00 PM)100% (Sep 17, 6:00 AM)30.04 "Hg (Sep 17, 6:00 AM)
Low72 °F (Sep 19, 10:00 AM)56% (Sep 27, 4:00 PM)29.80 "Hg (Sep 18, 5:00 PM)
Average84 °F85%29.93 "Hg
* Reported Sep 17 6:00 AM — Oct 2 6:00 AM, Farafenni, Weather by CustomWeather, © 2014

Note: Actual official high and low records may vary slightly from our data, if they occured in-between our weather recording intervals... More about our weather records

Advertising

Farafenni weather history for previous 24 hours

 ConditionsComfort  
Time TempWeatherWind HumidityBarometerVisibility
6:00 AM
Oct 2
79 °FClear.5 mph89%29.89 "Hg10 mi
3:00 AM81 °FClear.5 mph84%29.89 "Hg10 mi
12:00 AM82 °FClear.7 mph84%29.92 "Hg10 mi
11:00 PM
Oct 1
82 °FClear.7 mph84%29.95 "Hg10 mi
10:00 PM84 °FClear.12 mph84%29.92 "Hg10 mi
9:00 PM84 °FClear.12 mph84%29.92 "Hg10 mi
6:00 PM88 °FScattered clouds.9 mph70%29.86 "HgN/A
5:00 PM90 °FPassing clouds.7 mph67%29.83 "HgN/A
4:00 PM91 °FPassing clouds.9 mph67%29.83 "HgN/A
3:00 PM91 °FPassing clouds.9 mph67%29.86 "HgN/A
12:00 PM88 °FPassing clouds.7 mph70%29.95 "HgN/A
11:00 AM86 °FPassing clouds.12 mph75%29.98 "HgN/A
10:00 AM82 °FPassing clouds.9 mph89%29.98 "HgN/A
9:00 AM82 °FRain. Partly sunny.9 mph94%29.98 "HgN/A
8:00 AM82 °FPartly sunny.5 mph94%29.98 "HgN/A
7:00 AM81 °FPartly sunny.No wind100%29.95 "HgN/A
Weather by CustomWeather, © 2014

See weather overviewHow to use our weather pages